Location: Bolzano
(46.5015°N, 11.3369°E)
Time: 21:28:13
(UTC+01:00)

ISS - Visible Passes

Search period start: 19 January 2022 00:00
Search period end: 29 January 2022 00:00
Orbit: 413 x 422 km, 51.6° (Epoch: 19 January)

Date Brightness Start Highest point End Pass type
(mag) Time Alt. Az. Time Alt. Az. Time Alt. Az.
19 Jan -3.2 19:01:57 10° SW 19:04:41 51° SSW 19:04:41 51° SSW visible
20 Jan -3.0 18:14:18 10° SW 18:17:25 39° SE 18:18:56 24° E visible
20 Jan -0.8 19:50:55 10° W 19:51:53 17° W 19:51:53 17° W visible
21 Jan -3.5 19:02:58 10° WSW 19:06:08 63° NW 19:06:08 63° NW visible
22 Jan -3.8 18:15:09 10° WSW 18:18:29 90° NE 18:20:23 24° ENE visible
22 Jan -0.8 19:52:27 10° WNW 19:53:21 16° WNW 19:53:21 16° WNW visible
23 Jan -2.8 19:04:34 10° W 19:07:38 39° NNW 19:07:38 39° NNW visible
24 Jan -3.2 18:16:45 10° W 18:20:00 48° NNW 18:21:57 21° NE visible
24 Jan -0.8 19:54:12 10° WNW 19:54:55 15° WNW 19:54:55 15° WNW visible
25 Jan -2.5 19:06:29 10° WNW 19:09:17 32° NNW 19:09:17 32° NNW visible
26 Jan -2.7 18:18:49 10° WNW 18:21:55 34° N 18:23:44 20° NE visible
26 Jan -0.8 19:56:02 10° WNW 19:56:42 14° NW 19:56:42 14° NW visible
27 Jan -2.6 19:08:33 10° WNW 19:11:12 33° NNW 19:11:12 33° NNW visible
28 Jan -2.7 18:21:05 10° WNW 18:24:09 32° N 18:25:48 20° NE visible
28 Jan -0.8 19:58:00 10° WNW 19:58:46 16° WNW 19:58:46 16° WNW visible
